User: anonymous   Login
Location: Unspecified
(0.0000°N, 0.0000°E)
Time: 09:15:04
(UTC+00:00)
Language:

OUFTI-1 - Orbit

View from above orbital plane
View from above orbital plane
View from above satellite
View from above satellite

Ground track
Ground track

The orbit data is extracted from the following two-line orbital elements,

1 41458U 16025C   21340.89331986  .00007263  00000-0  34041-3 0  9996
2 41458  98.1660 128.9274 0154036 197.2345 162.3620 15.10046600308483
Epoch (UTC): 06 December 2021 21:26:22
Eccentricity: 0.0154036
inclination: 98.1660°
perigee height: 429 km
apogee height: 642 km
right ascension of ascending node: 128.9274°
argument of perigee: 197.2345°
revolutions per day: 15.10046600
mean anomaly at epoch: 162.3620°
orbit number at epoch: 30848

The dashed part of the orbit path shows where the satellite is in the earth's shadow,  

DLR